TimeCST,TemperatureF,Dew PointF,Humidity,Sea Level PressureIn,VisibilityMPH,Wind Direction,Wind SpeedMPH,Gust SpeedMPH,PrecipitationIn,Events,Conditions,WindDirDegrees,DateUTC
12:55 AM,16.0,3.9,59,30.38,10.0,NNW,9.2,19.6,N/A,,Clear,330,2013-02-20 06:55:00
1:55 AM,14.0,3.9,64,30.40,10.0,NNW,8.1,-,N/A,,Clear,340,2013-02-20 07:55:00
2:55 AM,12.0,3.9,70,30.38,10.0,North,12.7,-,N/A,,Clear,360,2013-02-20 08:55:00
3:55 AM,10.0,3.0,73,30.38,10.0,North,12.7,-,N/A,,Clear,10,2013-02-20 09:55:00
4:55 AM,7.0,1.9,80,30.40,10.0,North,6.9,-,N/A,,Clear,360,2013-02-20 10:55:00
5:55 AM,7.0,1.0,77,30.42,10.0,NNE,9.2,-,N/A,,Clear,30,2013-02-20 11:55:00
6:55 AM,5.0,-0.0,80,30.43,10.0,NNE,6.9,-,N/A,,Clear,20,2013-02-20 12:55:00
7:55 AM,7.0,-0.0,73,30.45,10.0,NNE,9.2,-,N/A,,Clear,20,2013-02-20 13:55:00
8:55 AM,10.4,-0.4,62,30.41,10.0,North,3.5,-,N/A,,Clear,360,2013-02-20 14:55:00
9:55 AM,12.0,1.9,64,30.46,10.0,NNE,3.5,-,N/A,,Clear,20,2013-02-20 15:55:00
10:55 AM,15.1,3.0,59,30.50,10.0,Variable,3.5,-,N/A,,Clear,0,2013-02-20 16:55:00
11:55 AM,17.1,3.9,56,30.46,10.0,ENE,4.6,-,N/A,,Clear,60,2013-02-20 17:55:00
12:55 PM,19.0,6.1,57,30.42,10.0,ENE,5.8,-,N/A,,Clear,60,2013-02-20 18:55:00
1:55 PM,19.9,6.1,55,30.40,10.0,East,5.8,-,N/A,,Clear,90,2013-02-20 19:55:00
2:55 PM,21.0,7.0,55,30.39,10.0,East,4.6,-,N/A,,Clear,80,2013-02-20 20:55:00
3:55 PM,21.0,7.0,55,30.38,10.0,ENE,6.9,-,N/A,,Clear,70,2013-02-20 21:55:00
4:55 PM,21.0,8.1,57,30.36,10.0,NE,9.2,-,N/A,,Mostly Cloudy,50,2013-02-20 22:55:00
5:55 PM,19.9,9.0,62,30.34,10.0,ENE,6.9,-,N/A,,Overcast,60,2013-02-20 23:55:00
6:55 PM,19.9,9.0,62,30.34,10.0,ENE,11.5,-,N/A,,Overcast,60,2013-02-21 00:55:00
7:55 PM,21.0,10.0,63,30.35,10.0,ENE,9.2,-,N/A,,Overcast,60,2013-02-21 01:55:00
8:55 PM,19.4,10.4,68,30.29,10.0,East,9.2,-,N/A,,Overcast,90,2013-02-21 02:55:00
9:55 PM,19.9,12.0,71,30.34,10.0,East,10.4,19.6,N/A,,Overcast,90,2013-02-21 03:55:00
10:55 PM,19.4,10.4,68,30.29,10.0,East,9.2,-,N/A,,Overcast,90,2013-02-21 04:55:00
11:55 PM,18.0,10.9,74,30.35,10.0,East,6.9,-,N/A,,Clear,90,2013-02-21 05:55:00